This is the latest recevied weather packets stored in our database for station/object KC5AV. If no packets are shown the sender has not sent any weather packets the latest 10 day(s).
| Time | Temp. | Humidity | Pressure | Rain* | Wind** | Luminosity | Snow |
|---|---|---|---|---|---|---|---|
| 1777333056 | 28.89° C | 77% | 1010.5 hPa | 0 mm | - | 76 W/m² | - |
| 1777332753 | 29.44° C | 76% | 1010.6 hPa | 0 mm | - | 76 W/m² | - |
| 1777332450 | 29.44° C | 77% | 1010.4 hPa | 0 mm | - | 106 W/m² | - |
| 1777332147 | 28.89° C | 77% | 1010.4 hPa | 0 mm | - | 115 W/m² | - |
| 1777331843 | 28.89° C | 77% | 1010.4 hPa | 0 mm | - | 116 W/m² | - |
| 1777331541 | 28.89° C | 77% | 1010.4 hPa | 0 mm | - | 108 W/m² | - |
| 1777331239 | 28.89° C | 77% | 1010.6 hPa | 0 mm | - | 85 W/m² | - |
| 1777330936 | 28.89° C | 76% | 1010.4 hPa | 0 mm | - | 109 W/m² | - |
| 1777330633 | 29.44° C | 75% | 1010.5 hPa | 0 mm | - | 110 W/m² | - |
| 1777330330 | 29.44° C | 74% | 1010.5 hPa | 0 mm | - | 154 W/m² | - |
| 1777330027 | 29.44° C | 75% | 1010.5 hPa | 0 mm | - | 163 W/m² | - |
| 1777329726 | 30° C | 73% | 1010.3 hPa | 0 mm | - | 165 W/m² | - |
| 1777329424 | 30° C | 74% | 1010.5 hPa | 0 mm | - | 220 W/m² | - |
| 1777329121 | 30° C | 74% | 1010.2 hPa | 0 mm | - | 198 W/m² | - |
| 1777328819 | 30° C | 74% | 1010.3 hPa | 0 mm | - | 254 W/m² | - |
| 1777328516 | 28.89° C | 76% | 1010.1 hPa | 0 mm | - | 325 W/m² | - |
| 1777328215 | 28.89° C | 78% | 1010.4 hPa | 0 mm | - | 139 W/m² | - |
| 1777327913 | 28.89° C | 77% | 1010.2 hPa | 0 mm | - | 30 W/m² | - |
| 1777327610 | 28.89° C | 76% | 1010.4 hPa | 0 mm | - | 81 W/m² | - |
| 1777327308 | 29.44° C | 76% | 1010.2 hPa | 0 mm | - | 196 W/m² | - |
| 1777327004 | 29.44° C | 76% | 1010.3 hPa | 0 mm | - | 134 W/m² | - |
| 1777326702 | 29.44° C | 76% | 1010.2 hPa | 0 mm | - | 123 W/m² | - |
| 1777326399 | 29.44° C | 75% | 1010.3 hPa | 0 mm | - | 144 W/m² | - |
| 1777326096 | 30° C | 75% | 1010.4 hPa | 0 mm | - | 180 W/m² | - |
| 1777325794 | 30° C | 75% | 1010.2 hPa | 0 mm | - | 113 W/m² | - |
* Rain latest hour (hover to see other rain measurements)
** Current wind speed in m/s (hover to see current wind gust speed)